Location: Zagreb
(45.8000°N, 16.0000°E)
Time: 00:51:14
(UTC+01:00)

NO-84 - Pass Details

Date: 07 November 2020
Orbit: 323 x 458 km, 55.0° (Epoch: 25 November)

Event Time Altitude Azimuth Distance (km) Brightness Sun altitude
Exits shadow 04:45:20 29° 18° (NNE) 747 ? -21.1°
Maximum altitude 04:45:27 30° 23° (NNE) 745 ? -21.1°
Drops below altitude 10° 04:48:15 10° 87° (E) 1,394 ? -20.6°
Sets 04:50:23 0° 99° (E) 2,214 ? -20.2°
